Location: American Canyon
(38.1966°N, 122.1514°W)
Time: 13:10:26
(UTC+00:00)

Cosmos 1300 - Pass Details

Date: 29 October 2020
Orbit: 511 x 514 km, 82.5° (Epoch: 01 December)

Event Time Altitude Azimuth Distance (km) Brightness Sun altitude
Exits shadow 12:45:40 - 355° (N) 1,963 5.6 -21.4°
Reaches altitude 10° 12:46:12 10° 356° (N) 1,744 5.3 -21.3°
Maximum altitude 12:50:01 77° 82° (E) 530 2.7 -20.6°
Drops below altitude 10° 12:53:48 10° 169° (S) 1,727 5.5 -19.8°
Sets 12:55:55 0° 171° (S) 2,608 6.4 -19.4°
